Voltar ao catálogo

COSMOS 1275 DEB

AtivoPO
NORAD 42140·DEBRIS·🇷🇺 Russia

Lançado Jun 4, 1981 de Plesetsk Cosmodrome

Loading…

Próximas Passagens (próximas 24 horas)

TLE

EnvelhecendoSource: Space-Track

Época: Sep 7, 2026, 17:41 UTC

1 42140U 81053RC  26250.73690570  .00000494  00000-0  66788-3 0  9995
2 42140  83.1339  66.4766 0198277 333.2029  25.8974 13.50237730596669

Acompanhe COSMOS 1275 DEB em tempo real com AllMySat

Download on the App Store